Home   Weather   Linares   Past weeks

Flag for Spain Past Weather in Linares, Spain — Yesterday and Last 2 Weeks

Now
39 °F

Chilly.


Feels Like: 39 °F
Forecast: 38 / 58 °F
Wind: No wind

Location: Granada / Aeropuerto

Current Time: Dec 11, 2016 at 3:28:26 am

Latest Report: Dec 11, 2016 at 3:00 am


Visibility: 6 mi

Pressure: 30.33 "Hg

Humidity: 100%

Dew Point: 39 °F

Location of LinaresLocation

Past Weather in Linares — Graph

°F

Linares Temperature Yesterday

Maximum temperature yesterday: 63 °F (at 2:30 pm)
Minimum temperature yesterday: 36 °F (at 7:30 am)
Average temperature yesterday: 47 °F

High & Low Weather Summary for the Past Weeks

 TemperatureHumidityPressure
High68 °F (Dec 6, 3:30 pm)100% (Nov 26, 8:30 pm)30.48 "Hg (Nov 26, 8:30 pm)
Low36 °F (Nov 29, 5:30 am)48% (Dec 8, 2:30 pm)29.68 "Hg (Nov 26, 2:00 am)
Average51 °F86%30.10 "Hg
* Reported Nov 26 2:00 am — Dec 11 2:00 am, Linares, Weather by CustomWeather, © 2016

Note: Actual official high and low records may vary slightly from our data, if they occured in-between our weather recording intervals... More about our weather records

Advertising

Linares Weather History for the Previous 24 Hours

Scroll right to see more
 ConditionsComfort  
Time TempWeatherWind HumidityBarometerVisibility
2:00 am
Sun, Dec 11
41 °FQuite cool.No wind93%30.33 "Hg6 mi
1:30 am41 °FQuite cool.No wind100%30.33 "HgN/A
1:00 am41 °FQuite cool.No wind100%30.33 "Hg5 mi
12:30 am43 °FQuite cool.2 mph93%30.36 "Hg5 mi
12:00 am43 °FQuite cool.1 mph93%30.36 "HgN/A
11:30 pm
Sat, Dec 10
43 °FQuite cool.No wind93%30.36 "HgN/A
11:00 pm45 °FClear.No wind93%30.36 "Hg10 mi
10:30 pm45 °FClear.1 mph100%30.36 "Hg10 mi
10:00 pm45 °FClear.1 mph93%30.36 "Hg10 mi
9:30 pm46 °FClear.No wind93%30.36 "Hg10 mi
9:00 pm46 °FClear.1 mph93%30.36 "Hg10 mi
8:30 pm48 °FClear.1 mph94%30.36 "Hg10 mi
8:00 pm50 °FClear.1 mph88%30.36 "Hg10 mi
7:30 pm52 °FClear.No wind88%30.33 "Hg10 mi
7:00 pm52 °FClear.3 mph88%30.33 "Hg10 mi
6:30 pm54 °FPassing clouds.3 mph88%30.33 "HgN/A
6:00 pm57 °FPassing clouds.2 mph77%30.33 "HgN/A
5:30 pm61 °FPassing clouds.3 mph72%30.33 "HgN/A
5:00 pm63 °FPassing clouds.3 mph64%30.33 "HgN/A
4:30 pm63 °FPassing clouds.2 mph59%30.33 "HgN/A
4:00 pm63 °FPassing clouds.2 mph64%30.33 "HgN/A
3:30 pm63 °FPassing clouds.1 mph64%30.33 "HgN/A
3:00 pm63 °FPassing clouds.2 mph59%30.33 "HgN/A
2:30 pm63 °FPassing clouds.1 mph59%30.36 "HgN/A
2:00 pm61 °FPassing clouds.No wind63%30.36 "HgN/A
1:30 pm59 °FPassing clouds.No wind63%30.36 "HgN/A
1:00 pm59 °FPassing clouds.1 mph63%30.39 "HgN/A
12:30 pm55 °FPassing clouds.No wind77%30.39 "HgN/A
12:00 pm54 °FPassing clouds.No wind82%30.42 "HgN/A
11:30 am50 °FSunny.No wind88%30.42 "Hg10 mi
11:00 am46 °FSunny.No wind100%30.42 "Hg10 mi
10:30 am45 °FPassing clouds.No wind100%30.42 "HgN/A
10:00 am41 °FFog.No wind100%30.42 "Hg3 mi
9:30 am39 °FScattered clouds.No wind100%30.42 "Hg1 mi
9:00 am37 °FFog.No wind100%30.39 "Hg2 mi
8:30 am37 °FChilly.No wind100%30.39 "Hg2 mi
8:00 am36 °FPassing clouds.1 mph100%30.39 "Hg1 mi
7:30 am36 °FLight fog.1 mph100%30.39 "Hg1 mi
7:00 am37 °FPassing clouds.No wind93%30.39 "Hg1 mi
6:30 am37 °FPassing clouds.No wind100%30.39 "Hg1 mi
6:00 am37 °FDense fog.No wind100%30.39 "Hg1 mi
5:30 am39 °FFog.No wind100%30.39 "Hg2 mi
5:00 am39 °FChilly.No wind100%30.39 "HgN/A
4:30 am39 °FChilly.No wind100%30.39 "HgN/A
4:00 am41 °FQuite cool.No wind100%30.39 "HgN/A
3:30 am41 °FQuite cool.1 mph100%30.42 "HgN/A
3:00 am39 °FChilly.No wind100%30.42 "HgN/A
Weather by CustomWeather, © 2016

See weather overviewHow to use our weather pages